DW3263 Weather Reports


Display with metric or nautical units.
time (UTC)temp
F
wind
direction
speed
MPH
gust
MPH
rain 1hr
in
rain 24hr
in
rain mn
in
humidity
%
barometer
mb
20260510140520 62 158 4.0 8.0 0.00 0.04 0.01 7 1011.7
20260510135519 62 113 3.0 5.0 0.00 0.04 0.01 100 1011.5
20260510134520 62 113 2.0 7.0 0.00 0.04 0.01 100 1011.4
20260510133519 61 113 2.0 8.0 0.00 0.04 0.01 100 1011.5
20260510132730 60 0 1.0 4.0 0.00 0.04 0.01 100 1011.7
20260510131520 59 0 1.0 4.0 0.00 0.04 0.01 100 1011.8
20260510130519 58 0 2.0 5.0 0.00 0.04 0.01 100 1011.7
20260510125519 58 0 3.0 5.0 0.00 0.04 0.01 100 1011.6
20260510124520 57 0 1.0 3.0 0.00 0.04 0.01 100 1011.4
20260510123519 57 0 1.0 4.0 0.00 0.04 0.01 100 1011.3
20260510122520 57 0.0 2.0 0.00 0.04 0.01 100 1011.2
20260510121519 56 0 2.0 3.0 0.00 0.04 0.01 100 1011.4
20260510120520 56 315 2.0 5.0 0.00 0.04 0.01 100 1011.4
20260510115519 55 315 1.0 2.0 0.00 0.04 0.01 100 1011.5
20260510114519 54 0.0 2.0 0.00 0.04 0.01 100 1011.5
20260510113520 54 0.0 0.0 0.00 0.04 0.01 100 1011.2
20260510112520 53 0.0 1.0 0.00 0.04 0.01 100 1011.0
20260510111520 52 0.0 0.0 0.00 0.04 0.01 100 1010.8
20260510110520 51 0.0 0.0 0.00 0.04 0.01 100 1010.5
20260510105519 51 0.0 1.0 0.00 0.04 0.01 100 1010.4
20260510104519 51 0.0 0.0 0.00 0.04 0.01 100 1010.2
20260510103732 51 0.0 1.0 0.00 0.04 0.01 100 1010.1
20260510102520 50 0.0 0.0 0.00 0.04 0.01 100 1010.0
20260510101520 50 0.0 1.0 0.00 0.04 0.01 100 1009.6
20260510100520 51 0.0 2.0 0.01 0.04 0.01 100 1009.6
20260510095730 51 0.0 0.0 0.01 0.04 0.01 100 1009.5
20260510094520 51 0.0 0.0 0.01 0.04 0.01 100 1009.6
20260510093519 52 0.0 0.0 0.01 0.04 0.01 100 1009.4
20260510092520 52 0.0 3.0 0.01 0.04 0.01 100 1009.1
20260510091520 52 0.0 1.0 0.01 0.04 0.01 100 1008.9
20260510090519 52 0.0 1.0 0.00 0.03 0.00 100 1009.2
20260510085520 52 315 1.0 2.0 0.00 0.03 0.00 100 1009.8
20260510084520 52 315 1.0 3.0 0.00 0.03 0.00 100 1010.5
20260510083520 52 315 1.0 2.0 0.00 0.03 0.00 100 1010.6
20260510082520 52 315 1.0 3.0 0.00 0.03 0.00 100 1010.6
20260510081519 52 315 4.0 8.0 0.00 0.03 0.00 100 1010.2
20260510080520 51 0.0 0.0 0.00 0.03 0.00 100 1009.3
20260510075520 51 0.0 0.0 0.00 0.03 0.00 100 1008.9
20260510074520 51 0.0 0.0 0.00 0.03 0.00 100 1008.8
20260510073520 51 0.0 0.0 0.00 0.03 0.00 100 1008.7
20260510072520 51 0.0 0.0 0.00 0.03 0.00 100 1008.4
20260510071520 50 0.0 0.0 0.00 0.03 0.00 100 1008.7
20260510070520 50 0.0 0.0 0.00 0.03 0.00 100 1008.6
20260510065520 50 0.0 0.0 0.00 0.03 0.00 100 1008.7
20260510064520 50 0.0 1.0 0.00 0.03 0.00 100 1008.9
20260510063520 51 0.0 1.0 0.00 0.03 0.00 100 1009.3
20260510062520 51 0.0 0.0 0.00 0.03 0.00 100 1009.5
20260510061520 51 0.0 0.0 0.00 0.03 0.00 100 1009.5
20260510060732 52 0.0 0.0 0.00 0.03 0.00 100 1009.6
20260510055520 52 315 1.0 3.0 0.00 0.03 0.00 100 1009.7
20260510054520 53 315 2.0 7.0 0.00 0.03 0.00 100 1009.8
20260510053520 51 315 8.0 18.0 0.00 0.03 0.00 100 1010.1
20260510052520 50 0.0 1.0 0.00 0.03 0.00 100 1009.1
20260510051520 50 0.0 0.0 0.00 0.03 0.00 100 1009.2
20260510050520 50 0.0 0.0 0.00 0.03 0.00 100 1009.4
20260510045544 50 0.0 2.0 0.00 0.03 0.00 100 1009.5
20260510044729 51 0.0 2.0 0.00 0.03 0.00 100 1009.3
20260510043520 51 0.0 0.0 0.00 0.03 0.00 100 1008.9
20260510042520 51 0.0 0.0 0.00 0.03 0.00 100 1008.6
20260510041520 51 0.0 2.0 0.00 0.03 0.00 100 1008.5
20260510040520 51 0.0 3.0 0.00 0.03 0.00 100 1008.5
20260510035519 51 0.0 1.0 0.00 0.03 0.03 100 1008.5
20260510034519 51 0.0 1.0 0.00 0.03 0.03 100 1008.4
20260510033519 51 0.0 0.0 0.00 0.03 0.03 100 1008.4
20260510032519 51 0.0 1.0 0.00 0.03 0.03 100 1008.5
20260510031519 51 0.0 2.0 0.00 0.03 0.03 100 1008.6
20260510030519 51 0.0 0.0 0.00 0.03 0.03 100 1008.5
20260510025519 52 0.0 0.0 0.00 0.03 0.03 100 1008.7
20260510024519 52 0.0 0.0 0.00 0.03 0.03 100 1008.6
20260510023732 52 0.0 0.0 0.00 0.03 0.03 100 1008.6
20260510022520 52 0.0 0.0 0.00 0.03 0.03 100 1008.5
20260510021519 53 0.0 0.0 0.00 0.03 0.03 100 1008.6
20260510020519 53 0.0 0.0 0.00 0.03 0.03 100 1008.6
20260510015519 54 0.0 0.0 0.00 0.03 0.03 100 1008.5
20260510014519 54 0.0 0.0 0.00 0.03 0.03 100 1008.3
20260510013519 54 0.0 0.0 0.00 0.03 0.03 100 1008.1
20260510012520 55 0.0 0.0 0.00 0.03 0.03 100 1008.0
20260510011729 55 0.0 0.0 0.00 0.03 0.03 100 1007.8
20260510010730 56 0.0 0.0 0.00 0.03 0.03 100 1007.8
20260510005731 56 0.0 2.0 0.00 0.03 0.03 100 1007.6
20260510004519 56 0.0 0.0 0.01 0.03 0.03 100 1007.5
20260510003946 57 0.0 0.0 0.01 0.03 0.03 100 1007.5
20260510002519 58 0.0 0.0 0.01 0.03 0.03 100 1007.6
20260510001519 58 0.0 0.0 0.01 0.03 0.03 100 1007.6
20260510000730 59 0.0 1.0 0.01 0.03 0.03 100 1007.4
20260509235519 60 0.0 0.0 0.01 0.03 0.03 100 1007.1
20260509234519 61 0.0 0.0 0.00 0.02 0.02 2 1007.1
20260509233519 62 0.0 2.0 0.00 0.02 0.02 15 1007.1
20260509232519 61 180 1.0 5.0 0.00 0.02 0.02 18 1007.2
20260509231519 62 180 1.0 4.0 0.00 0.02 0.02 16 1007.2
20260509230944 62 180 2.0 5.0 0.00 0.02 0.02 20 1007.2
20260509225732 62 158 1.0 5.0 0.00 0.02 0.02 16 1007.3
20260509224520 62 158 3.0 6.0 0.00 0.02 0.02 26 1007.3
20260509223519 62 180 3.0 6.0 0.00 0.02 0.02 26 1007.2
20260509222520 62 180 2.0 6.0 0.00 0.02 0.02 27 1007.3
20260509221519 62 180 3.0 6.0 0.00 0.02 0.02 30 1007.3
20260509220519 62 180 2.0 4.0 0.00 0.02 0.02 23 1007.3
20260509215519 62 180 3.0 7.0 0.00 0.02 0.02 21 1007.3
20260509214520 62 158 3.0 5.0 0.00 0.02 0.02 7 1007.3
20260509213520 62 90 1.0 6.0 0.00 0.02 0.02 100 1007.5
20260509212519 61 90 1.0 3.0 0.00 0.02 0.02 100 1007.6
20260509211520 61 90 2.0 6.0 0.00 0.02 0.02 100 1007.7
20260509210520 60 158 2.0 5.0 0.00 0.02 0.02 100 1007.7
20260509205519 60 203 2.0 4.0 0.00 0.02 0.02 100 1007.8
20260509204520 58 203 1.0 3.0 0.00 0.02 0.02 100 1007.7
20260509203520 57 113 2.0 5.0 0.00 0.02 0.02 100 1007.8
20260509202519 56 90 4.0 7.0 0.00 0.02 0.02 100 1007.7
20260509201519 56 90 3.0 5.0 0.01 0.02 0.02 100 1008.0
20260509200519 56 90 1.0 2.0 0.01 0.02 0.02 100 1008.1
20260509195520 56 0.0 1.0 0.01 0.02 0.02 100 1008.0
20260509194519 56 90 3.0 6.0 0.01 0.02 0.02 100 1007.9
20260509193519 56 90 2.0 5.0 0.01 0.02 0.02 100 1007.9
20260509192520 56 90 2.0 6.0 0.01 0.02 0.02 100 1008.2
20260509191519 56 90 3.0 6.0 0.00 0.01 0.01 100 1008.3
20260509190520 56 90 1.0 3.0 0.00 0.01 0.01 100 1008.6
20260509185520 56 90 1.0 3.0 0.00 0.01 0.01 100 1008.6
20260509184520 56 225 3.0 7.0 0.00 0.01 0.01 100 1008.8
20260509183520 56 225 1.0 3.0 0.00 0.01 0.01 100 1008.9
20260509182520 56 225 1.0 4.0 0.00 0.01 0.01 100 1008.7
20260509181520 55 0.0 2.0 0.00 0.01 0.01 100 1008.6
20260509180520 55 225 1.0 3.0 0.00 0.01 0.01 100 1008.6
20260509175520 55 225 1.0 3.0 0.00 0.01 0.01 100 1008.8
20260509174731 54 0.0 2.0 0.00 0.01 0.01 100 1009.0
20260509173520 54 0.0 2.0 0.00 0.01 0.01 100 1009.2
20260509172519 54 225 2.0 4.0 0.00 0.01 0.01 100 1009.3
20260509171520 54 225 2.0 4.0 0.00 0.01 0.01 100 1009.4
20260509170520 54 225 1.0 6.0 0.01 0.01 0.01 100 1009.5
20260509165519 54 180 1.0 6.0 0.01 0.01 0.01 100 1009.4
20260509164945 54 180 2.0 4.0 0.01 0.01 0.01 100 1009.4
20260509163733 54 315 3.0 8.0 0.01 0.01 0.01 100 1009.2
20260509162520 54 0.0 2.0 0.01 0.01 0.01 100 1008.9
20260509161520 54 270 1.0 2.0 0.01 0.01 0.01 100 1009.1
20260509160520 53 0.0 0.0 0.00 0.00 0.00 100 1009.1
20260509155520 53 0.0 1.0 0.00 0.00 0.00 100 1009.2
20260509154520 53 0.0 0.0 0.00 0.00 0.00 100 1009.5
20260509153520 53 248 1.0 3.0 0.00 0.00 0.00 100 1009.7
20260509152530 53 248 1.0 3.0 0.00 0.00 0.00 100 1009.8
20260509151520 53 248 1.0 4.0 0.00 0.00 0.00 100 1010.1
20260509150520 54 248 2.0 5.0 0.00 0.00 0.00 100 1010.2
20260509145519 54 248 1.0 2.0 0.00 0.00 0.00 100 1009.8
20260509144520 54 248 1.0 3.0 0.00 0.00 0.00 100 1009.7
20260509143520 54 248 1.0 3.0 0.00 0.00 0.00 100 1009.6
20260509142943 54 248 1.0 3.0 0.00 0.00 0.00 100 1009.5
20260509141518 54 248 1.0 2.0 0.00 0.00 0.00 100 1009.5